Regional Weather Roundup
Issued by NWS

Home | Current Version | Previous Version | Graphics & Text | Print | Product List | Glossary Off
Versions: 1 2 3 4 5 6 7 8 9 10 11 12 13 14 15 16 17 18 19 20 21 22 23 24 25 26 27 28 29 30 31 32 33 34 35 36 37 38 39 40 41 42 43 44 45 46 47 48 49 50

000
ASUS43 KMKX 211600
RWRWI

WISCONSIN REGIONAL WEATHER ROUNDUP
NATIONAL WEATHER SERVICE MILWAUKEE/SULLIVAN WI
1100 AM CDT SUN SEP 21 2014

NOTE: "FAIR" INDICATES FEW OR NO CLOUDS BELOW 12,000 FEET WITH NO
SIGNIFICANT WEATHER AND/OR OBSTRUCTIONS TO VISIBILITY.

WIZ001-002-006>008-014>016-023>028-211700-
NORTHWEST WISCONSIN

CITY           SKY/WX    TMP DP  RH WIND       PRES   REMARKS
SUPERIOR ARPT  PTSUNNY   58  47  66 N9G16     30.08R
ASHLAND        CLOUDY    52  43  71 N15       30.09R
HAYWARD        PTSUNNY   53  44  71 N10G20    30.07R
SIREN          CLOUDY    58  49  71 N12G18    30.09R
RICE LAKE      PTSUNNY   57  46  66 NW12G17   30.07R
LADYSMITH      PTSUNNY   56  46  69 N16G24    30.05R
EAU CLAIRE     NOT AVBL
MENOMONIE      PTSUNNY   60  45  59 N13G26    30.06R
NEW RICHMOND   PTSUNNY   55  48  75 N10G16    30.09R
OSCEOLA        PTSUNNY   57  50  76 N12       30.12R
$$

WIZ003>005-009-010-017-018-211700-
NORTH CENTRAL WISCONSIN

CITY           SKY/WX    TMP DP  RH WIND       PRES   REMARKS
WOODRUFF       CLOUDY    49  43  79 N16G22    30.00R
RHINELANDER    CLOUDY    47  40  76 N8G22     30.00R
EAGLE RIVER    CLOUDY    45  38  76 N14G28    29.98R
LAND O LAKES   CLOUDY    45  39  82 N14G24    30.00R
PHILLIPS       CLOUDY    50  44  79 N9G16     30.02R
TOMAHAWK       CLOUDY    49  42  76 N10G22    30.00R
MEDFORD        CLOUDY    53  45  75 N20G26    29.99R
MERRILL        CLOUDY    51  44  78 N9G18     29.97R
$$

WIZ029-030-035-036-043>047-211700-
CENTRAL WISCONSIN

CITY           SKY/WX    TMP DP  RH WIND       PRES   REMARKS
WAUSAU         PTSUNNY   53  43  68 N17G28    29.96R
MOSINEE        CLOUDY    54  45  71 N18G31    29.98R
MARSHFIELD     PTSUNNY   57  45  64 N21G31    29.99R
STEVENS POINT  CLOUDY    52  46  80 N20G25    29.95R
WAUPACA        LGT RAIN  59  54  85 N13G20    29.91R
WAUTOMA        NOT AVBL
WISC RAPIDS    MOSUNNY   58  46  64 N20G33    29.98R
CAMP DOUGLAS   PTSUNNY   57  55  94 N15G24    29.97R
$$

WIZ011>013-019>022-031-037>040-048>050-211700-
NORTHEAST WISCONSIN

CITY           SKY/WX    TMP DP  RH WIND       PRES   REMARKS
ANTIGO         CLOUDY    49  41  74 N28       29.95R
STURGEON BAY   CLOUDY    55  46  71 N25G31    29.87R
GREEN BAY      PTSUNNY   58  50  75 N15G25    29.89R
MANITOWOC      CLOUDY    57  52  82 N18G29    29.84R
APPLETON       PTSUNNY   57  54  88 NW15      29.90R
CLINTONVILLE   CLOUDY    54  46  76 N16G28    29.92R
OSHKOSH        CLOUDY    60  53  77 N14G23    29.88R
$$

WIZ032>034-041-042-053>061-211700-
SOUTHWEST WISCONSIN

CITY           SKY/WX    TMP DP  RH WIND       PRES   REMARKS
LA CROSSE      CLOUDY    61  50  67 N14G24    30.02R
SPARTA         CLOUDY    57  50  76 NW14      30.00R
VIROQUA        CLOUDY    54  53  96 NW15      30.00R
BOSCOBEL       CLOUDY    60  51  72 NW6       30.00R
PRAIRIE DU CHI CLOUDY    57  49  74 NW13      30.01R
PLATTEVILLE    CLOUDY    57  51  81 NW14G20   29.99R
$$

WIZ056-057-062-063-064-067-068-211700-
SOUTH CENTRAL WISCONSIN

CITY           SKY/WX    TMP DP  RH WIND       PRES   REMARKS
BARABOO/DELLS  CLOUDY    59  50  72 N10G17    29.94R
LONE ROCK      NOT AVBL
WATERTOWN      CLOUDY    56  55  97 NW9G21    29.89R
MADISON        PTSUNNY   62  52  69 N12G25    29.92R
MIDDLETON      CLOUDY    61  51  69 NW14G22   29.93R
MONROE         CLOUDY    57  50  77 NW16G22   29.94R
JANESVILLE     CLOUDY    59  52  77 NW16      29.91R
$$

WIZ051-052-058>065-066-070>072-211700-
SOUTHEAST WISCONSIN

CITY           SKY/WX    TMP DP  RH WIND       PRES   REMARKS
MILWAUKEE      LGT RAIN  58  52  80 NW16      29.86R
WAUKESHA       CLOUDY    54  52  94 NW14G22   29.89R
MILWAUKEE/TIMM HVY RAIN  55  52  88 NW13G18   29.87R
RACINE         CLOUDY    60  52  74 W14       29.86R
BURLINGTON     CLOUDY    55  51  86 NW15G22   29.89R
KENOSHA        PTSUNNY   60  53  77 NW22G31   29.86R
FOND DU LAC    CLOUDY    58  51  78 N18G26    29.90R
SHEBOYGAN      PTSUNNY   60  51  72 N16G25    29.85R
WEST BEND      CLOUDY    57  52  82 NW13G18   29.86R
JUNEAU         CLOUDY    57  54  89 NW9G17    29.90R
$$

LSZ147-162-211700-
LAKE SUPERIOR

STATION/POSITION TIME  TEMP    WIND        PRES    WAVE
                       AIR SEA DIR/SP/G            HT/PER
                 (UTC) (F)     (DEG/KT/KT) (MB)    (FT/S)
W MID LAKE BUOY  1450   46 46  360/ 17/ 23 1017.2R   3/ 5
DEVILS ISLAND    1500   49     350/ 17/ 19 1018.4R
PORT WING        1500   52      30/ 12/ 14 1018.6
SAXON HARBOR     1500   51      30/ 15/ 19 1017.6R
$$

LMZ867-665-643>646-211700-
LAKE MICHIGAN

STATION/POSITION TIME  TEMP    WIND        PRES    WAVE
                       AIR SEA DIR/SP/G            HT/PER
                 (UTC) (F)     (DEG/KT/KT) (MB)    (FT/S)
N MID LAKE BUOY  1450   54 58  350/ 27/ 35 1007.1R   6/ 5
NORTHPORT PIER   1505   54     340/ 26/ 27 1009.8R
SISTER BAY       1512           10/ 27/ 36   N/A
KEWAUNEE LAKESHO 1500   54     340/ 13/ 23 1008.9R
SHEBOYGAN LAKESH 1500   57 51  330/ 21/ 25 1009.6R
PORT WASHINGTON  1520   60     340/ 10/ 18 1010.8R
ATWATER BUOY     1500   58     300/ 16/ 21 1010.5R
MILWAUKEE LAKESH 1500   60     310/ 11/ 16   N/A
S MID LAKE BUOY  1450   59 63  290/ 25/ 31 1007.6R   6/ 6
KENOSHA   LAKESH 1500   58     300/ 17/ 23 1009.8R
$$

TC  - TEMPERATURE IN CELSIUS
VSB - VISIBILITY IN STATUTE MILES
WCI - WIND CHILL INDEX
HX  - HEAT INDEX



USA.gov is the U.S. government's official web portal to all federal, state and local government web resources and services.